EW7671 Weather Reports


time (UTC)temp
F
wind
direction
speed
knots
gust
knots
rain 1hr
in
rain 24hr
in
rain mn
in
humidity
%
barometer
mb
20260502181536 56 272 0.0 0.0 0.00 0.00 0.00 47 1020.9
20260502163031 63 301 0.0 0.0 0.00 0.00 0.00 45 1020.3
20260502161529 65 323 0.0 0.9 0.00 0.00 0.00 43 1020.3
20260502151527 68 306 0.0 0.0 0.00 0.00 0.00 38 1020.6
20260502123005 65 330 0.0 0.9 0.00 0.00 0.00 33 1022.1
20260502121501 65 283 0.0 1.7 0.00 0.00 0.00 36 1022.5
20260502120114 64 294 0.0 1.7 0.00 0.00 0.00 40 1022.6
20260502114607 63 303 0.0 0.0 0.00 0.00 0.00 41 1022.8
20260502113110 63 299 0.0 1.7 0.00 0.00 0.00 42 1023.0
20260502111549 62 264 0.0 0.9 0.00 0.00 0.00 40 1023.3
20260502110048 62 321 0.0 1.7 0.00 0.00 0.00 41 1023.5
20260502104543 61 321 0.0 0.9 0.00 0.00 0.00 43 1023.7
20260502103101 60 287 0.0 0.9 0.00 0.00 0.00 45 1023.8
20260502101548 59 290 0.0 1.7 0.00 0.00 0.00 45 1024.1
20260502071518 45 121 0.0 0.0 0.00 0.00 0.00 1 1027.0
20260502070015 43 121 0.0 0.0 0.00 0.00 0.00 1 1027.2
20260502064507 40 121 0.0 0.0 0.00 0.00 0.00 1 1027.4
20260502063002 39 121 0.0 0.0 0.00 0.00 0.00 1 1027.6
20260502061600 37 121 0.0 0.0 0.00 0.00 0.00 1 1027.8
20260502060106 37 121 0.0 0.0 0.00 0.00 0.00 1 1027.9
20260502054607 37 121 0.0 0.0 0.00 0.00 0.00 1 1027.9
20260502053050 37 121 0.0 0.0 0.00 0.00 0.00 1 1027.9
20260502051542 37 121 0.0 0.0 0.00 0.00 0.00 1 1028.0
20260502050045 37 121 0.0 0.0 0.00 0.00 0.00 1 1027.9
20260502044533 37 121 0.0 0.0 0.00 0.00 0.00 1 1027.8
20260502043030 37 121 0.0 0.0 0.00 0.00 0.00 1 1027.8
20260502041532 37 121 0.0 0.0 0.00 0.00 0.00 1 1027.9
20260502040021 37 121 0.0 0.0 0.00 0.00 0.00 1 1027.8
20260502034518 37 121 0.0 0.0 0.00 0.00 0.00 1 1027.8
20260502033012 37 121 0.0 0.0 0.00 0.00 0.00 1 1027.8
20260502031508 37 121 0.0 0.0 0.00 0.00 0.00 1 1027.8
20260502030006 37 121 0.0 0.0 0.00 0.00 0.00 1 1027.9
20260502024559 37 121 0.0 0.0 0.00 0.00 0.00 1 1027.9
20260502023059 38 121 0.0 0.0 0.00 0.00 0.00 1 1027.8
20260502021554 38 121 0.0 0.0 0.00 0.00 0.00 1 1027.8
20260502020046 38 121 0.0 0.0 0.00 0.00 0.00 1 1027.8
20260502014541 38 121 0.0 0.0 0.00 0.00 0.00 1 1027.8
20260502013037 38 121 0.0 0.0 0.00 0.00 0.00 1 1027.9
20260502011533 39 121 0.0 0.0 0.00 0.00 0.00 1 1027.9
20260502010029 39 121 0.0 0.0 0.00 0.00 0.00 1 1027.9
20260502004524 39 121 0.0 0.0 0.00 0.00 0.00 1 1028.0
20260502003019 39 121 0.0 0.0 0.00 0.00 0.00 1 1027.9
20260502001516 39 121 0.0 0.0 0.00 0.00 0.00 1 1028.0
20260502000011 40 121 0.0 0.0 0.00 0.00 0.00 1 1028.0
20260501234506 40 121 0.0 0.0 0.00 0.00 0.00 1 1028.1
20260501233002 40 121 0.0 0.0 0.00 0.00 0.00 1 1028.0
20260501231558 40 121 0.0 0.0 0.00 0.00 0.00 1 1027.9
20260501230054 41 121 0.0 0.0 0.00 0.00 0.00 1 1027.9
20260501224551 41 121 0.0 0.0 0.00 0.00 0.00 1 1028.0
20260501223055 41 121 0.0 0.0 0.00 0.00 0.00 1 1027.8
20260501221541 41 121 0.0 0.0 0.00 0.00 0.00 1 1027.9
20260501220037 42 121 0.0 0.0 0.00 0.00 0.00 1 1027.7
20260501214535 42 121 0.0 0.0 0.00 0.00 0.00 4 1027.5
20260501213027 43 121 0.0 0.9 0.00 0.00 0.00 6 1027.4
20260501211523 43 121 0.0 0.0 0.00 0.00 0.00 10 1027.2
20260501210018 43 121 0.0 0.0 0.00 0.00 0.00 15 1027.1
20260501204513 44 121 0.0 0.0 0.00 0.00 0.00 16 1027.0
20260501203021 45 121 0.0 0.0 0.00 0.00 0.00 21 1026.8
20260501201506 45 121 0.0 0.0 0.00 0.00 0.00 24 1026.7
20260501200002 46 121 0.0 0.0 0.00 0.00 0.00 32 1026.4
20260501194557 47 121 0.0 0.0 0.00 0.00 0.00 32 1026.1
20260501193052 48 123 0.0 0.0 0.00 0.00 0.00 38 1025.9
20260501191548 49 360 0.0 0.0 0.00 0.00 0.00 44 1025.5
20260501190044 50 360 0.0 0.0 0.00 0.00 0.00 49 1025.2
20260501184539 51 270 0.0 0.9 0.00 0.00 0.00 51 1024.8
20260501183035 52 360 0.0 0.0 0.00 0.00 0.00 52 1024.4